| time (UTC) | temp F | wind direction | speed MPH | gust MPH | rain 1hr in | rain 24hr in | rain mn in | humidity % | barometer mb |
| 20260901222503 | 80 | 209 | 0.0 | 1.0 | 0.00 | 0.10 | 0.05 | 87 | 1014.3 |
| 20260901222003 | 80 | 214 | 0.0 | 2.0 | 0.00 | 0.10 | 0.05 | 87 | 1014.2 |
| 20260901221503 | 80 | 215 | 0.0 | 2.0 | 0.00 | 0.10 | 0.05 | 86 | 1014.2 |
| 20260901221003 | 80 | 225 | 0.0 | 2.0 | 0.00 | 0.10 | 0.05 | 86 | 1014.2 |
| 20260901220718 | 80 | 231 | 0.0 | 2.0 | 0.00 | 0.10 | 0.05 | 85 | 1014.2 |
| 20260901220003 | 80 | 328 | 0.0 | 1.0 | 0.00 | 0.10 | 0.05 | 86 | 1014.2 |
| 20260901215718 | 80 | 328 | 0.0 | 1.0 | 0.00 | 0.10 | 0.05 | 86 | 1014.2 |
| 20260901215003 | 81 | 0 | 0.0 | 0.0 | 0.00 | 0.10 | 0.05 | 87 | 1014.3 |
| 20260901214503 | 81 | 52 | 0.0 | 1.0 | 0.00 | 0.10 | 0.05 | 86 | 1014.2 |
| 20260901214003 | 81 | 65 | 0.0 | 1.0 | 0.00 | 0.10 | 0.05 | 86 | 1014.3 |
| 20260901213503 | 81 | 182 | 0.0 | 1.0 | 0.00 | 0.10 | 0.05 | 86 | 1014.2 |
| 20260901213003 | 81 | 182 | 0.0 | 1.0 | 0.00 | 0.10 | 0.05 | 86 | 1014.3 |
| 20260901212718 | 81 | 182 | 0.0 | 1.0 | 0.00 | 0.10 | 0.05 | 86 | 1014.3 |
| 20260901212003 | 81 | 182 | 0.0 | 1.0 | 0.00 | 0.10 | 0.05 | 85 | 1014.1 |
| 20260901211717 | 81 | 182 | 0.0 | 1.0 | 0.00 | 0.10 | 0.05 | 85 | 1014.1 |
| 20260901211003 | 81 | 181 | 0.0 | 2.0 | 0.00 | 0.10 | 0.05 | 85 | 1014.1 |
| 20260901210503 | 81 | 211 | 0.0 | 2.0 | 0.00 | 0.10 | 0.05 | 85 | 1014.1 |
| 20260901210003 | 81 | 228 | 0.0 | 2.0 | 0.00 | 0.10 | 0.05 | 85 | 1014.1 |
| 20260901205503 | 81 | 222 | 0.0 | 2.0 | 0.00 | 0.10 | 0.05 | 84 | 1014.2 |
| 20260901205218 | 81 | 221 | 0.0 | 2.0 | 0.00 | 0.10 | 0.05 | 84 | 1014.1 |
| 20260901204503 | 81 | 202 | 0.0 | 2.0 | 0.00 | 0.10 | 0.05 | 85 | 1014.2 |
| 20260901204003 | 81 | 204 | 0.0 | 4.0 | 0.00 | 0.10 | 0.05 | 86 | 1014.2 |
| 20260901203717 | 81 | 207 | 0.0 | 4.0 | 0.00 | 0.10 | 0.05 | 85 | 1014.2 |
| 20260901203003 | 81 | 223 | 0.0 | 1.0 | 0.00 | 0.10 | 0.05 | 88 | 1014.2 |
| 20260901202503 | 80 | 223 | 0.0 | 2.0 | 0.00 | 0.10 | 0.05 | 89 | 1014.1 |
| 20260901202003 | 80 | 223 | 0.0 | 2.0 | 0.00 | 0.10 | 0.05 | 87 | 1014.1 |
| 20260901201503 | 80 | 223 | 0.0 | 1.0 | 0.00 | 0.10 | 0.05 | 90 | 1014.3 |
| 20260901201003 | 80 | 0 | 0.0 | 0.0 | 0.00 | 0.10 | 0.05 | 90 | 1014.2 |
| 20260901200504 | 79 | 0 | 0.0 | 0.0 | 0.00 | 0.10 | 0.05 | 89 | 1014.2 |
| 20260901200003 | 79 | 0 | 0.0 | 0.0 | 0.00 | 0.10 | 0.05 | 89 | 1014.2 |
| 20260901195503 | 79 | 0 | 0.0 | 0.0 | 0.00 | 0.10 | 0.05 | 89 | 1014.3 |
| 20260901195003 | 79 | 0 | 0.0 | 0.0 | 0.00 | 0.10 | 0.05 | 89 | 1014.3 |
| 20260901194503 | 79 | 223 | 0.0 | 1.0 | 0.00 | 0.10 | 0.05 | 89 | 1014.3 |
| 20260901194003 | 79 | 223 | 0.0 | 1.0 | 0.00 | 0.10 | 0.05 | 89 | 1014.3 |
| 20260901193503 | 80 | 223 | 0.0 | 1.0 | 0.00 | 0.10 | 0.05 | 89 | 1014.2 |
| 20260901193003 | 80 | 223 | 0.0 | 1.0 | 0.00 | 0.11 | 0.05 | 89 | 1014.2 |
| 20260901192503 | 80 | 223 | 0.0 | 1.0 | 0.00 | 0.11 | 0.05 | 89 | 1014.2 |
| 20260901192003 | 80 | 223 | 0.0 | 1.0 | 0.00 | 0.11 | 0.05 | 90 | 1014.3 |
| 20260901191503 | 80 | 223 | 0.0 | 1.0 | 0.00 | 0.12 | 0.05 | 89 | 1014.4 |
| 20260901191003 | 80 | 0 | 0.0 | 0.0 | 0.00 | 0.12 | 0.05 | 89 | 1014.3 |
| 20260901190503 | 80 | 0 | 0.0 | 0.0 | 0.00 | 0.12 | 0.05 | 88 | 1014.3 |
| 20260901190003 | 80 | 223 | 0.0 | 1.0 | 0.00 | 0.12 | 0.05 | 89 | 1014.2 |
| 20260901185503 | 80 | 223 | 0.0 | 1.0 | 0.00 | 0.12 | 0.05 | 87 | 1014.4 |
| 20260901185003 | 80 | 223 | 0.0 | 2.0 | 0.00 | 0.12 | 0.05 | 86 | 1014.3 |
| 20260901184503 | 81 | 227 | 0.0 | 2.0 | 0.00 | 0.12 | 0.05 | 85 | 1014.3 |
| 20260901184003 | 81 | 234 | 0.0 | 1.0 | 0.00 | 0.12 | 0.05 | 86 | 1014.3 |
| 20260901183503 | 81 | 241 | 0.0 | 2.0 | 0.00 | 0.12 | 0.05 | 86 | 1014.4 |
| 20260901183217 | 81 | 253 | 0.0 | 2.0 | 0.00 | 0.12 | 0.05 | 85 | 1014.5 |
| 20260901182718 | 81 | 288 | 0.0 | 2.0 | 0.00 | 0.12 | 0.05 | 84 | 1014.4 |
| 20260901182217 | 81 | 298 | 0.0 | 1.0 | 0.00 | 0.12 | 0.05 | 87 | 1014.4 |
| 20260901181718 | 81 | 285 | 0.0 | 1.0 | 0.00 | 0.12 | 0.05 | 87 | 1014.3 |
| 20260901181003 | 80 | 205 | 0.0 | 1.0 | 0.00 | 0.12 | 0.05 | 88 | 1014.3 |
| 20260901180718 | 80 | 205 | 0.0 | 1.0 | 0.00 | 0.12 | 0.05 | 88 | 1014.3 |
| 20260901180003 | 80 | 205 | 0.0 | 1.0 | 0.00 | 0.13 | 0.05 | 88 | 1014.2 |
| 20260901175718 | 80 | 205 | 0.0 | 1.0 | 0.00 | 0.13 | 0.05 | 89 | 1014.2 |
| 20260901175003 | 80 | 0 | 0.0 | 0.0 | 0.00 | 0.14 | 0.05 | 88 | 1014.3 |
| 20260901174503 | 80 | 0 | 0.0 | 0.0 | 0.00 | 0.14 | 0.05 | 88 | 1014.1 |
| 20260901174003 | 80 | 205 | 0.0 | 2.0 | 0.00 | 0.14 | 0.05 | 88 | 1014.0 |
| 20260901173503 | 80 | 212 | 0.0 | 2.0 | 0.00 | 0.15 | 0.05 | 88 | 1013.9 |
| 20260901173003 | 80 | 224 | 0.0 | 2.0 | 0.00 | 0.15 | 0.05 | 88 | 1013.9 |
| 20260901172503 | 80 | 233 | 0.0 | 1.0 | 0.00 | 0.15 | 0.05 | 89 | 1013.8 |
| 20260901172004 | 79 | 228 | 0.0 | 2.0 | 0.00 | 0.15 | 0.05 | 89 | 1013.7 |
| 20260901171503 | 79 | 212 | 0.0 | 2.0 | 0.00 | 0.15 | 0.05 | 88 | 1013.7 |
| 20260901171003 | 79 | 171 | 0.0 | 1.0 | 0.00 | 0.15 | 0.05 | 88 | 1013.7 |
| 20260901170503 | 79 | 171 | 0.0 | 1.0 | 0.00 | 0.15 | 0.05 | 87 | 1013.7 |
| 20260901170003 | 79 | 167 | 0.0 | 3.0 | 0.00 | 0.15 | 0.05 | 88 | 1013.7 |
| 20260901165503 | 79 | 145 | 0.0 | 3.0 | 0.00 | 0.15 | 0.05 | 88 | 1013.7 |
| 20260901165004 | 79 | 88 | 0.0 | 1.0 | 0.00 | 0.15 | 0.05 | 90 | 1013.9 |
| 20260901164503 | 78 | 110 | 0.0 | 1.0 | 0.00 | 0.15 | 0.05 | 90 | 1014.0 |
| 20260901164003 | 78 | 162 | 0.0 | 2.0 | 0.00 | 0.15 | 0.05 | 90 | 1014.0 |
| 20260901163503 | 78 | 166 | 0.0 | 2.0 | 0.00 | 0.15 | 0.05 | 90 | 1014.0 |
| 20260901163003 | 78 | 129 | 0.0 | 2.0 | 0.00 | 0.15 | 0.05 | 89 | 1013.9 |
| 20260901162503 | 78 | 98 | 0.0 | 2.0 | 0.00 | 0.15 | 0.05 | 89 | 1013.7 |
| 20260901162216 | 77 | 47 | 0.0 | 2.0 | 0.00 | 0.15 | 0.05 | 89 | 1013.7 |
| 20260901161503 | 77 | 328 | 0.0 | 1.0 | 0.00 | 0.16 | 0.05 | 92 | 1013.8 |
| 20260901161003 | 77 | 312 | 0.0 | 3.0 | 0.00 | 0.16 | 0.05 | 92 | 1013.7 |
| 20260901160503 | 77 | 211 | 0.0 | 3.0 | 0.00 | 0.16 | 0.05 | 91 | 1013.8 |
| 20260901160003 | 76 | 132 | 1.0 | 3.0 | 0.00 | 0.16 | 0.05 | 92 | 1013.7 |
| 20260901155503 | 76 | 85 | 1.0 | 5.0 | 0.00 | 0.16 | 0.05 | 93 | 1013.8 |
| 20260901155003 | 76 | 141 | 1.0 | 5.0 | 0.00 | 0.16 | 0.05 | 94 | 1013.7 |
| 20260901154503 | 76 | 171 | 0.0 | 1.0 | 0.00 | 0.16 | 0.05 | 95 | 1013.7 |
| 20260901154003 | 75 | 171 | 0.0 | 1.0 | 0.00 | 0.16 | 0.05 | 95 | 1013.7 |
| 20260901153717 | 75 | 171 | 0.0 | 1.0 | 0.00 | 0.16 | 0.05 | 95 | 1013.7 |
| 20260901153218 | 75 | 171 | 0.0 | 1.0 | 0.00 | 0.16 | 0.05 | 95 | 1013.7 |
| 20260901152503 | 75 | 174 | 0.0 | 1.0 | 0.00 | 0.16 | 0.05 | 95 | 1013.6 |
| 20260901152003 | 75 | 169 | 0.0 | 2.0 | 0.00 | 0.16 | 0.05 | 96 | 1013.6 |
| 20260901151503 | 74 | 171 | 0.0 | 2.0 | 0.00 | 0.16 | 0.05 | 96 | 1013.6 |
| 20260901151003 | 74 | 176 | 0.0 | 2.0 | 0.00 | 0.16 | 0.05 | 96 | 1013.6 |
| 20260901150718 | 74 | 185 | 0.0 | 3.0 | 0.00 | 0.16 | 0.05 | 97 | 1013.6 |
| 20260901150003 | 74 | 133 | 0.0 | 3.0 | 0.00 | 0.17 | 0.05 | 96 | 1013.6 |
| 20260901145503 | 74 | 164 | 0.0 | 2.0 | 0.00 | 0.17 | 0.05 | 96 | 1013.7 |
| 20260901145003 | 74 | 192 | 0.0 | 2.0 | 0.00 | 0.17 | 0.05 | 96 | 1013.5 |
| 20260901144503 | 74 | 192 | 0.0 | 1.0 | 0.00 | 0.18 | 0.05 | 96 | 1013.5 |
| 20260901144003 | 74 | 192 | 0.0 | 2.0 | 0.00 | 0.18 | 0.05 | 97 | 1013.5 |
| 20260901143503 | 74 | 192 | 0.0 | 2.0 | 0.00 | 0.18 | 0.05 | 97 | 1013.6 |
| 20260901143003 | 74 | 192 | 0.0 | 1.0 | 0.00 | 0.18 | 0.05 | 97 | 1013.6 |
| 20260901142717 | 74 | 192 | 0.0 | 1.0 | 0.00 | 0.18 | 0.05 | 97 | 1013.6 |
| 20260901142003 | 74 | 192 | 0.0 | 1.0 | 0.00 | 0.19 | 0.05 | 97 | 1013.8 |
| 20260901141716 | 74 | 187 | 0.0 | 2.0 | 0.00 | 0.19 | 0.05 | 97 | 1013.8 |
| 20260901141218 | 74 | 156 | 0.0 | 2.0 | 0.00 | 0.19 | 0.05 | 97 | 1013.8 |
| 20260901140503 | 74 | 63 | 0.0 | 2.0 | 0.00 | 0.19 | 0.05 | 97 | 1013.7 |
| 20260901140003 | 73 | 42 | 0.0 | 2.0 | 0.00 | 0.19 | 0.05 | 97 | 1013.7 |
| 20260901135503 | 73 | 45 | 0.0 | 3.0 | 0.00 | 0.19 | 0.05 | 97 | 1013.7 |
| 20260901135003 | 73 | 63 | 0.0 | 3.0 | 0.00 | 0.19 | 0.05 | 97 | 1013.7 |
| 20260901134716 | 73 | 57 | 0.0 | 3.0 | 0.00 | 0.20 | 0.05 | 97 | 1013.7 |
| 20260901134218 | 73 | 51 | 0.0 | 2.0 | 0.00 | 0.21 | 0.05 | 97 | 1013.8 |
| 20260901133503 | 73 | 210 | 0.0 | 2.0 | 0.00 | 0.22 | 0.05 | 97 | 1013.7 |
| 20260901133003 | 73 | 50 | 0.0 | 2.0 | 0.00 | 0.22 | 0.05 | 97 | 1013.7 |
| 20260901132718 | 73 | 309 | 0.0 | 1.0 | 0.00 | 0.23 | 0.05 | 97 | 1013.7 |
| 20260901132003 | 72 | 309 | 0.0 | 1.0 | 0.00 | 0.23 | 0.05 | 98 | 1013.8 |
| 20260901131718 | 72 | 309 | 0.0 | 1.0 | 0.00 | 0.24 | 0.05 | 98 | 1013.8 |
| 20260901131003 | 72 | 309 | 0.0 | 1.0 | 0.01 | 0.27 | 0.05 | 97 | 1013.9 |
| 20260901130503 | 72 | 309 | 0.0 | 1.0 | 0.01 | 0.28 | 0.05 | 98 | 1013.9 |
| 20260901130003 | 72 | 300 | 0.0 | 1.0 | 0.01 | 0.31 | 0.05 | 98 | 1013.9 |
| 20260901125503 | 72 | 300 | 0.0 | 1.0 | 0.01 | 0.32 | 0.05 | 97 | 1013.9 |
| 20260901125003 | 72 | 229 | 0.0 | 1.0 | 0.01 | 0.32 | 0.05 | 97 | 1013.9 |
| 20260901124503 | 71 | 228 | 0.0 | 1.0 | 0.01 | 0.32 | 0.05 | 98 | 1014.0 |
| 20260901124003 | 71 | 228 | 0.0 | 1.0 | 0.01 | 0.33 | 0.05 | 97 | 1013.9 |
| 20260901123503 | 71 | 0 | 0.0 | 0.0 | 0.01 | 0.41 | 0.05 | 97 | 1013.9 |
| 20260901123003 | 71 | 0 | 0.0 | 0.0 | 0.01 | 0.51 | 0.05 | 97 | 1013.8 |
| 20260901122503 | 70 | 0 | 0.0 | 0.0 | 0.01 | 0.54 | 0.05 | 97 | 1013.8 |
| 20260901122217 | 70 | 0 | 0.0 | 0.0 | 0.01 | 0.54 | 0.05 | 97 | 1013.8 |
| 20260901121503 | 70 | 0 | 0.0 | 0.0 | 0.01 | 0.55 | 0.05 | 97 | 1013.7 |
| 20260901121003 | 70 | 0 | 0.0 | 0.0 | 0.00 | 0.54 | 0.04 | 97 | 1013.6 |
| 20260901120503 | 70 | 0 | 0.0 | 0.0 | 0.00 | 0.55 | 0.04 | 97 | 1013.6 |
| 20260901120003 | 70 | 0 | 0.0 | 0.0 | 0.00 | 0.55 | 0.04 | 97 | 1013.6 |
| 20260901115503 | 70 | 0 | 0.0 | 0.0 | 0.00 | 0.55 | 0.04 | 97 | 1013.5 |
| 20260901115217 | 70 | 0 | 0.0 | 0.0 | 0.00 | 0.55 | 0.04 | 97 | 1013.5 |
| 20260901114503 | 69 | 0 | 0.0 | 0.0 | 0.00 | 0.55 | 0.04 | 96 | 1013.5 |
| 20260901114003 | 69 | 0 | 0.0 | 0.0 | 0.00 | 0.55 | 0.04 | 96 | 1013.5 |
| 20260901113503 | 69 | 0 | 0.0 | 0.0 | 0.00 | 0.55 | 0.04 | 96 | 1013.5 |
| 20260901113217 | 69 | 0 | 0.0 | 0.0 | 0.00 | 0.55 | 0.04 | 96 | 1013.5 |
| 20260901112718 | 69 | 0 | 0.0 | 0.0 | 0.00 | 0.55 | 0.04 | 97 | 1013.4 |
| 20260901112003 | 69 | 0 | 0.0 | 0.0 | 0.00 | 0.55 | 0.04 | 97 | 1013.3 |
| 20260901111503 | 69 | 0 | 0.0 | 0.0 | 0.00 | 0.56 | 0.04 | 97 | 1013.4 |
| 20260901111003 | 69 | 0 | 0.0 | 0.0 | 0.00 | 0.56 | 0.04 | 96 | 1013.4 |
| 20260901110718 | 69 | 0 | 0.0 | 0.0 | 0.00 | 0.56 | 0.04 | 96 | 1013.4 |
| 20260901110216 | 69 | 0 | 0.0 | 0.0 | 0.00 | 0.56 | 0.04 | 96 | 1013.4 |
| 20260901105503 | 69 | 0 | 0.0 | 0.0 | 0.00 | 0.56 | 0.04 | 96 | 1013.4 |
| 20260901105003 | 69 | 0 | 0.0 | 0.0 | 0.00 | 0.56 | 0.04 | 96 | 1013.4 |
| 20260901104503 | 69 | 0 | 0.0 | 0.0 | 0.00 | 0.56 | 0.04 | 96 | 1013.4 |
| 20260901104003 | 69 | 0 | 0.0 | 0.0 | 0.00 | 0.56 | 0.04 | 96 | 1013.3 |
| 20260901103503 | 69 | 0 | 0.0 | 0.0 | 0.00 | 0.56 | 0.04 | 96 | 1013.3 |
| 20260901103003 | 69 | 0 | 0.0 | 0.0 | 0.00 | 0.56 | 0.04 | 96 | 1013.3 |
| 20260901102503 | 69 | 0 | 0.0 | 0.0 | 0.00 | 0.56 | 0.04 | 96 | 1013.3 |
| 20260901102003 | 69 | 0 | 0.0 | 0.0 | 0.00 | 0.56 | 0.04 | 96 | 1013.1 |
| 20260901101503 | 69 | 0 | 0.0 | 0.0 | 0.00 | 0.56 | 0.04 | 96 | 1013.0 |
| 20260901101003 | 69 | 0 | 0.0 | 0.0 | 0.00 | 0.56 | 0.04 | 96 | 1012.9 |
| 20260901100503 | 69 | 0 | 0.0 | 0.0 | 0.00 | 0.56 | 0.04 | 96 | 1012.9 |
| 20260901100220 | 69 | 0 | 0.0 | 0.0 | 0.00 | 0.56 | 0.04 | 96 | 1012.8 |
| 20260901095503 | 69 | 0 | 0.0 | 0.0 | 0.00 | 0.56 | 0.04 | 96 | 1012.9 |
| 20260901095218 | 69 | 0 | 0.0 | 0.0 | 0.00 | 0.56 | 0.04 | 96 | 1012.9 |
| 20260901094503 | 69 | 0 | 0.0 | 0.0 | 0.00 | 0.56 | 0.04 | 96 | 1012.9 |
| 20260901094003 | 69 | 0 | 0.0 | 0.0 | 0.00 | 0.56 | 0.04 | 96 | 1012.9 |
| 20260901093503 | 69 | 0 | 0.0 | 0.0 | 0.00 | 0.56 | 0.04 | 96 | 1012.9 |
| 20260901093003 | 69 | 0 | 0.0 | 0.0 | 0.00 | 0.56 | 0.04 | 96 | 1012.9 |
| 20260901092503 | 69 | 0 | 0.0 | 0.0 | 0.00 | 0.56 | 0.04 | 96 | 1012.9 |
| 20260901092003 | 69 | 0 | 0.0 | 0.0 | 0.01 | 0.56 | 0.04 | 96 | 1012.7 |
| 20260901091717 | 69 | 0 | 0.0 | 0.0 | 0.01 | 0.56 | 0.04 | 96 | 1012.7 |
| 20260901091003 | 69 | 0 | 0.0 | 0.0 | 0.01 | 0.56 | 0.04 | 96 | 1012.7 |
| 20260901090717 | 69 | 0 | 0.0 | 0.0 | 0.01 | 0.56 | 0.04 | 96 | 1012.7 |
| 20260901090003 | 69 | 0 | 0.0 | 0.0 | 0.01 | 0.56 | 0.04 | 96 | 1012.7 |
| 20260901085503 | 69 | 0 | 0.0 | 0.0 | 0.02 | 0.56 | 0.04 | 96 | 1012.7 |
| 20260901085003 | 69 | 0 | 0.0 | 0.0 | 0.03 | 0.56 | 0.04 | 96 | 1012.8 |
| 20260901084503 | 69 | 0 | 0.0 | 0.0 | 0.03 | 0.56 | 0.04 | 96 | 1012.7 |
| 20260901084003 | 69 | 228 | 0.0 | 1.0 | 0.03 | 0.56 | 0.04 | 97 | 1012.6 |
| 20260901083503 | 69 | 228 | 0.0 | 1.0 | 0.03 | 0.56 | 0.04 | 97 | 1012.7 |
| 20260901083218 | 69 | 228 | 0.0 | 1.0 | 0.03 | 0.56 | 0.04 | 97 | 1012.7 |
| 20260901082716 | 69 | 228 | 0.0 | 1.0 | 0.03 | 0.56 | 0.04 | 97 | 1012.7 |
| 20260901082003 | 69 | 228 | 0.0 | 1.0 | 0.02 | 0.55 | 0.03 | 96 | 1012.7 |
| 20260901081503 | 69 | 228 | 0.0 | 1.0 | 0.02 | 0.55 | 0.03 | 96 | 1012.7 |
| 20260901081004 | 69 | 228 | 0.0 | 1.0 | 0.02 | 0.55 | 0.03 | 96 | 1012.7 |
| 20260901080503 | 69 | 228 | 0.0 | 1.0 | 0.02 | 0.55 | 0.03 | 96 | 1012.7 |
| 20260901080217 | 69 | 228 | 0.0 | 1.0 | 0.02 | 0.55 | 0.03 | 96 | 1012.7 |
| 20260901075503 | 69 | 228 | 0.0 | 1.0 | 0.01 | 0.54 | 0.02 | 96 | 1012.8 |
| 20260901075003 | 69 | 228 | 0.0 | 1.0 | 0.00 | 0.53 | 0.01 | 96 | 1013.1 |
| 20260901074503 | 69 | 228 | 0.0 | 1.0 | 0.00 | 0.54 | 0.01 | 96 | 1012.9 |
| 20260901074003 | 69 | 228 | 0.0 | 1.0 | 0.00 | 0.54 | 0.01 | 96 | 1013.0 |
| 20260901073503 | 69 | 0 | 0.0 | 0.0 | 0.00 | 0.54 | 0.01 | 96 | 1013.0 |
| 20260901073003 | 69 | 0 | 0.0 | 0.0 | 0.00 | 0.54 | 0.01 | 96 | 1013.2 |
| 20260901072503 | 69 | 228 | 0.0 | 1.0 | 0.00 | 0.54 | 0.01 | 96 | 1013.2 |
| 20260901072003 | 69 | 228 | 0.0 | 1.0 | 0.00 | 0.54 | 0.01 | 96 | 1013.3 |
| 20260901071503 | 69 | 227 | 0.0 | 1.0 | 0.00 | 0.54 | 0.01 | 96 | 1013.2 |
| 20260901071003 | 69 | 222 | 0.0 | 1.0 | 0.00 | 0.54 | 0.01 | 96 | 1013.4 |
| 20260901070503 | 69 | 211 | 0.0 | 1.0 | 0.00 | 0.55 | 0.01 | 96 | 1013.4 |
| 20260901070003 | 69 | 211 | 0.0 | 1.0 | 0.00 | 0.55 | 0.01 | 96 | 1013.4 |
| 20260901065503 | 69 | 211 | 0.0 | 1.0 | 0.00 | 0.55 | 0.01 | 96 | 1013.5 |
| 20260901065217 | 69 | 211 | 0.0 | 1.0 | 0.00 | 0.55 | 0.01 | 96 | 1013.4 |
| 20260901064503 | 69 | 211 | 0.0 | 1.0 | 0.00 | 0.55 | 0.01 | 96 | 1013.6 |
| 20260901064003 | 69 | 0 | 0.0 | 0.0 | 0.00 | 0.56 | 0.01 | 96 | 1013.6 |
| 20260901063503 | 69 | 211 | 0.0 | 1.0 | 0.00 | 0.57 | 0.01 | 96 | 1013.7 |
| 20260901063003 | 69 | 211 | 0.0 | 1.0 | 0.00 | 0.58 | 0.01 | 96 | 1013.9 |
| 20260901062718 | 69 | 0 | 0.0 | 0.0 | 0.00 | 0.58 | 0.01 | 96 | 1013.8 |
| 20260901062217 | 69 | 0 | 0.0 | 0.0 | 0.01 | 0.58 | 0.01 | 96 | 1013.9 |
| 20260901061503 | 68 | 0 | 0.0 | 0.0 | 0.01 | 0.58 | 0.01 | 96 | 1014.0 |
| 20260901061003 | 68 | 0 | 0.0 | 0.0 | 0.01 | 0.58 | 0.01 | 96 | 1014.0 |
| 20260901060503 | 68 | 0 | 0.0 | 0.0 | 0.01 | 0.58 | 0.01 | 96 | 1014.1 |
| 20260901060003 | 68 | 0 | 0.0 | 0.0 | 0.01 | 0.58 | 0.01 | 96 | 1014.2 |
| 20260901055503 | 68 | 0 | 0.0 | 0.0 | 0.01 | 0.58 | 0.01 | 96 | 1014.2 |
| 20260901055216 | 68 | 0 | 0.0 | 0.0 | 0.01 | 0.58 | 0.01 | 96 | 1014.2 |
| 20260901054503 | 68 | 0 | 0.0 | 0.0 | 0.01 | 0.58 | 0.01 | 96 | 1014.3 |
| 20260901054216 | 68 | 0 | 0.0 | 0.0 | 0.01 | 0.59 | 0.01 | 96 | 1014.3 |
| 20260901053503 | 68 | 0 | 0.0 | 0.0 | 0.01 | 0.59 | 0.01 | 96 | 1014.4 |
| 20260901053003 | 68 | 0 | 0.0 | 0.0 | 0.01 | 0.59 | 0.01 | 96 | 1014.4 |
| 20260901052719 | 68 | 0 | 0.0 | 0.0 | 0.01 | 0.59 | 0.01 | 96 | 1014.5 |
| 20260901052004 | 68 | 0 | 0.0 | 0.0 | 0.00 | 0.58 | 0.00 | 96 | 1014.5 |
| 20260901051503 | 68 | 0 | 0.0 | 0.0 | 0.00 | 0.60 | 0.00 | 96 | 1014.6 |
| 20260901051003 | 68 | 0 | 0.0 | 0.0 | 0.00 | 0.60 | 0.00 | 96 | 1014.6 |
| 20260901050503 | 68 | 0 | 0.0 | 0.0 | 0.00 | 0.60 | 0.00 | 96 | 1014.6 |
| 20260901050003 | 69 | 0 | 0.0 | 0.0 | 0.00 | 0.60 | 0.00 | 96 | 1014.9 |
| 20260901045503 | 69 | 0 | 0.0 | 0.0 | 0.00 | 0.60 | 0.00 | 96 | 1014.8 |
| 20260901045003 | 68 | 0 | 0.0 | 0.0 | 0.00 | 0.60 | 0.00 | 96 | 1014.9 |
| 20260901044717 | 69 | 0 | 0.0 | 0.0 | 0.00 | 0.60 | 0.00 | 96 | 1015.0 |
| 20260901044003 | 69 | 211 | 0.0 | 1.0 | 0.00 | 0.60 | 0.00 | 96 | 1015.1 |
| 20260901043503 | 69 | 211 | 0.0 | 1.0 | 0.00 | 0.60 | 0.00 | 96 | 1015.2 |
| 20260901043218 | 69 | 0 | 0.0 | 0.0 | 0.00 | 0.60 | 0.00 | 96 | 1015.2 |
| 20260901042503 | 69 | 0 | 0.0 | 0.0 | 0.00 | 0.60 | 0.00 | 96 | 1015.2 |
| 20260901042003 | 69 | 0 | 0.0 | 0.0 | 0.00 | 0.60 | 0.00 | 96 | 1015.2 |
| 20260901041503 | 69 | 0 | 0.0 | 0.0 | 0.00 | 0.60 | 0.00 | 96 | 1015.2 |
| 20260901041003 | 69 | 0 | 0.0 | 0.0 | 0.00 | 0.60 | 0.00 | 96 | 1015.1 |
| 20260901040717 | 69 | 0 | 0.0 | 0.0 | 0.00 | 0.60 | 0.00 | 96 | 1015.2 |
| 20260901040218 | 69 | 0 | 0.0 | 0.0 | 0.00 | 0.60 | 0.00 | 96 | 1015.3 |
| 20260901035503 | 69 | 0 | 0.0 | 0.0 | 0.00 | 0.60 | 0.60 | 96 | 1015.2 |
| 20260901035003 | 69 | 0 | 0.0 | 0.0 | 0.00 | 0.60 | 0.60 | 96 | 1015.3 |
| 20260901034503 | 69 | 0 | 0.0 | 0.0 | 0.00 | 0.60 | 0.60 | 96 | 1015.3 |
| 20260901034003 | 69 | 0 | 0.0 | 0.0 | 0.00 | 0.60 | 0.60 | 96 | 1015.3 |
| 20260901033503 | 69 | 0 | 0.0 | 0.0 | 0.00 | 0.60 | 0.60 | 96 | 1015.3 |
| 20260901033003 | 69 | 0 | 0.0 | 0.0 | 0.00 | 0.60 | 0.60 | 96 | 1015.5 |
| 20260901032503 | 69 | 0 | 0.0 | 0.0 | 0.00 | 0.60 | 0.60 | 96 | 1015.3 |
| 20260901032003 | 69 | 0 | 0.0 | 0.0 | 0.00 | 0.60 | 0.60 | 96 | 1015.4 |
| 20260901031504 | 69 | 0 | 0.0 | 0.0 | 0.00 | 0.60 | 0.60 | 96 | 1015.5 |
| 20260901031218 | 69 | 0 | 0.0 | 0.0 | 0.00 | 0.60 | 0.60 | 96 | 1015.5 |
| 20260901030503 | 70 | 0 | 0.0 | 0.0 | 0.00 | 0.60 | 0.60 | 95 | 1015.5 |
| 20260901030003 | 70 | 0 | 0.0 | 0.0 | 0.00 | 0.60 | 0.60 | 96 | 1015.6 |
| 20260901025718 | 70 | 0 | 0.0 | 0.0 | 0.00 | 0.60 | 0.60 | 96 | 1015.5 |
| 20260901025003 | 70 | 0 | 0.0 | 0.0 | 0.00 | 0.60 | 0.60 | 96 | 1015.6 |
| 20260901024503 | 70 | 0 | 0.0 | 0.0 | 0.01 | 0.60 | 0.60 | 96 | 1015.7 |
| 20260901024003 | 70 | 0 | 0.0 | 0.0 | 0.02 | 0.60 | 0.60 | 96 | 1015.9 |
| 20260901023503 | 70 | 0 | 0.0 | 0.0 | 0.02 | 0.60 | 0.60 | 96 | 1016.1 |
| 20260901023003 | 70 | 0 | 0.0 | 0.0 | 0.03 | 0.60 | 0.60 | 96 | 1016.1 |
| 20260901022503 | 70 | 0 | 0.0 | 0.0 | 0.04 | 0.60 | 0.60 | 96 | 1016.1 |
| 20260901022003 | 70 | 0 | 0.0 | 0.0 | 0.04 | 0.60 | 0.60 | 96 | 1016.1 |
| 20260901021503 | 70 | 0 | 0.0 | 0.0 | 0.04 | 0.60 | 0.60 | 96 | 1016.1 |
| 20260901021003 | 70 | 0 | 0.0 | 0.0 | 0.04 | 0.60 | 0.60 | 96 | 1015.9 |
| 20260901020503 | 70 | 0 | 0.0 | 0.0 | 0.04 | 0.60 | 0.60 | 96 | 1016.0 |
| 20260901020003 | 70 | 0 | 0.0 | 0.0 | 0.04 | 0.60 | 0.60 | 96 | 1016.1 |
| 20260901015503 | 70 | 0 | 0.0 | 0.0 | 0.04 | 0.60 | 0.60 | 96 | 1016.1 |
| 20260901015003 | 70 | 0 | 0.0 | 0.0 | 0.05 | 0.60 | 0.60 | 96 | 1016.3 |
| 20260901014503 | 70 | 0 | 0.0 | 0.0 | 0.04 | 0.59 | 0.59 | 96 | 1016.3 |
| 20260901014003 | 70 | 0 | 0.0 | 0.0 | 0.03 | 0.58 | 0.58 | 96 | 1016.4 |
| 20260901013503 | 70 | 0 | 0.0 | 0.0 | 0.03 | 0.58 | 0.58 | 96 | 1016.4 |
| 20260901013003 | 71 | 0 | 0.0 | 0.0 | 0.02 | 0.57 | 0.57 | 96 | 1016.6 |
| 20260901012503 | 70 | 0 | 0.0 | 0.0 | 0.01 | 0.56 | 0.56 | 96 | 1016.5 |
| 20260901012003 | 71 | 0 | 0.0 | 0.0 | 0.01 | 0.56 | 0.56 | 96 | 1016.4 |
| 20260901011503 | 71 | 0 | 0.0 | 0.0 | 0.01 | 0.56 | 0.56 | 96 | 1016.4 |
| 20260901011003 | 71 | 0 | 0.0 | 0.0 | 0.01 | 0.56 | 0.56 | 96 | 1016.4 |
| 20260901010503 | 71 | 0 | 0.0 | 0.0 | 0.01 | 0.56 | 0.56 | 96 | 1016.2 |
| 20260901010003 | 71 | 0 | 0.0 | 0.0 | 0.01 | 0.56 | 0.56 | 95 | 1016.1 |
| 20260901005503 | 71 | 0 | 0.0 | 0.0 | 0.01 | 0.56 | 0.56 | 95 | 1016.1 |
| 20260901005003 | 71 | 211 | 0.0 | 2.0 | 0.00 | 0.55 | 0.55 | 96 | 1016.1 |
| 20260901004503 | 71 | 211 | 0.0 | 2.0 | 0.00 | 0.55 | 0.55 | 96 | 1016.0 |
| 20260901004219 | 71 | 211 | 0.0 | 1.0 | 0.00 | 0.55 | 0.55 | 96 | 1016.0 |
| 20260901003503 | 71 | 211 | 0.0 | 2.0 | 0.00 | 0.55 | 0.55 | 96 | 1016.0 |
| 20260901003003 | 71 | 211 | 0.0 | 2.0 | 0.00 | 0.55 | 0.55 | 96 | 1015.9 |
| 20260901002717 | 71 | 211 | 0.0 | 2.0 | 0.00 | 0.55 | 0.55 | 96 | 1015.7 |
| 20260901002003 | 71 | 216 | 0.0 | 1.0 | 0.00 | 0.55 | 0.55 | 96 | 1015.7 |
| 20260901001503 | 71 | 216 | 0.0 | 1.0 | 0.00 | 0.55 | 0.55 | 96 | 1015.7 |
| 20260901001003 | 71 | 0 | 0.0 | 0.0 | 0.00 | 0.55 | 0.55 | 95 | 1015.8 |
| 20260901000503 | 71 | 0 | 0.0 | 0.0 | 0.00 | 0.55 | 0.55 | 95 | 1015.7 |
| 20260901000003 | 71 | 121 | 0.0 | 1.0 | 0.00 | 0.55 | 0.55 | 95 | 1015.8 |
| 20260831235717 | 72 | 121 | 0.0 | 1.0 | 0.00 | 0.55 | 0.55 | 95 | 1015.8 |
| 20260831235003 | 72 | 0 | 0.0 | 0.0 | 0.00 | 0.55 | 0.55 | 96 | 1015.7 |
| 20260831234503 | 72 | 0 | 0.0 | 0.0 | 0.00 | 0.55 | 0.55 | 96 | 1015.7 |
| 20260831234003 | 72 | 0 | 0.0 | 0.0 | 0.00 | 0.55 | 0.55 | 96 | 1015.7 |
| 20260831233503 | 72 | 0 | 0.0 | 0.0 | 0.00 | 0.55 | 0.55 | 96 | 1015.8 |
| 20260831233003 | 72 | 0 | 0.0 | 0.0 | 0.00 | 0.55 | 0.55 | 95 | 1015.7 |
| 20260831232503 | 72 | 0 | 0.0 | 0.0 | 0.00 | 0.55 | 0.55 | 95 | 1015.6 |
| 20260831232003 | 72 | 0 | 0.0 | 0.0 | 0.00 | 0.55 | 0.55 | 95 | 1015.8 |
| 20260831231503 | 72 | 0 | 0.0 | 0.0 | 0.00 | 0.55 | 0.55 | 95 | 1015.8 |
| 20260831231003 | 72 | 0 | 0.0 | 0.0 | 0.00 | 0.55 | 0.55 | 96 | 1015.9 |
| 20260831230503 | 72 | 0 | 0.0 | 0.0 | 0.00 | 0.55 | 0.55 | 96 | 1016.0 |
| 20260831230003 | 72 | 0 | 0.0 | 0.0 | 0.00 | 0.55 | 0.55 | 96 | 1016.0 |
| 20260831225503 | 72 | 128 | 0.0 | 2.0 | 0.00 | 0.55 | 0.55 | 96 | 1016.1 |
| 20260831225003 | 72 | 146 | 0.0 | 2.0 | 0.00 | 0.55 | 0.55 | 96 | 1016.0 |
| 20260831224717 | 72 | 146 | 0.0 | 2.0 | 0.00 | 0.55 | 0.55 | 96 | 1016.0 |
| 20260831224003 | 72 | 0 | 0.0 | 0.0 | 0.00 | 0.55 | 0.55 | 96 | 1016.0 |
| 20260831223503 | 72 | 0 | 0.0 | 0.0 | 0.00 | 0.55 | 0.55 | 96 | 1016.1 |
| 20260831223003 | 72 | 0 | 0.0 | 0.0 | 0.00 | 0.55 | 0.55 | 96 | 1016.0 |